Simultaneous Nadir Overpasses (SNOs) Predictions

Prediction of SNOs between AQUA and NPP Satellite Orbit:

Table of predicted SNOs for the next 14.0 days since TLE Epoch: 4/6/2024
Index Date (AQUA) Time (AQUA) Lat,Lon (AQUA) SZA (AQUA ) Date (NPP) Time (NPP) Lat,Lon (NPP) SZA (NPP ) Distance(km) Time Diff (sec)
1 04/06/2024 11:37:14 -81.19, 106.87 98.29 04/06/2024 11:36:52 -81.19, 106.81 98.27 1.20 22
2 04/06/2024 12:26:35 81.21, -85.09 81.65 04/06/2024 12:27:35 81.21, -85.15 81.62 1.04 60
3 04/09/2024 00:31:03 -81.20, -86.22 99.31 04/09/2024 00:30:47 -81.20, -86.09 99.32 2.22 16
4 04/09/2024 01:20:24 81.22, 81.79 80.63 04/09/2024 01:21:30 81.22, 81.92 80.57 2.25 66
5 04/11/2024 13:24:52 -81.20, 80.35 100.26 04/11/2024 13:24:44 -81.20, 80.20 100.23 2.51 8
6 04/11/2024 14:14:11 81.26,-110.90 79.58 04/11/2024 14:15:25 81.23,-111.05 79.55 3.77 74
7 04/14/2024 02:18:40 -81.20,-113.04 101.20 04/14/2024 02:18:40 -81.20,-113.17 101.18 2.14 0
8 04/16/2024 14:23:04 81.20,-114.15 77.90 04/16/2024 14:21:51 81.20,-114.03 77.93 2.16 73
9 04/16/2024 15:12:27 -81.21, 53.61 102.13 04/16/2024 15:12:36 -81.20, 53.41 102.11 3.25 9
10 04/19/2024 03:16:49 81.21, 52.54 76.99 04/19/2024 03:15:46 81.20, 52.49 77.03 0.99 63



Historial Predications of SNOs between AQUA and NPP
